Погода в Ужгороде

Погода в Ужгороде : погода сейчас, прогноз погоды и архив. Всё, что Вы хотите узнать о погоде в Ужгороде!

Поиск расширенной информации на нашем сайте:

Другие новости

Новости СМИ2

Главная страница сайта

Новости сайта

03.07.2017

Напоминаем, что на нашем специализированном сайте Метеоцентр.Азия вы можете получить высокодетализированные автоматические прогнозы погоды по пунктам России, СНГ и мира в авиационном формате (включающие направление и скорость ветра, видимость, явления погоды, количество и форму облачности, нижнюю и верхнюю границу облачности).

Рекомендуем: Новые правила по торговле ИП пивом в 2017 году

Погода в Ужгороде - сегодня

Время (UTC), дата Ветер
(°,м/с) 
Видим.   Явления Облачность Т
(°С)
Тd
(°С)
f(%) Тe
(°С)
Pmin
(гПа)
dP
(гПа)
Po
(мм)
O2
(г/м3)
Тmin Tmax R s Состояние
почвы
21 16.10.18 тихо ()   10 км    ясно 
+6.6 +3.8 82 +7  1024.3  0.1  757  297           
00 17.10.18 тихо ()   10 км    ясно 
+3.8 +2.3 90 +4  1024.6  0.1  757  301           
03 17.10.18 тихо ()   10 км    ясно 
+2.2 +1.7 96 +2  1024.4  -0.3  757  302           
06 17.10.18 тихо ()   10 км    6/0 верхняя 
[Ci fib]
+3 +1.2 88 +3  1014.8  0.5  758  302  +1.1         
09 17.10.18 тихо ()   10 км    8/0 верхняя 
[Ci fib]
+15.7 +5.8 52 +16  1024  -0.2  757  288           
12 17.10.18 тихо ()   10 км    3/0 верхняя 
[Ci fib]
+22.3 +3.4 29 +22  1021.5  -2.1  756  281           
15 17.10.18 тихо ()   10 км    3/0 верхняя 
[Ci fib]
+22 +2.7 28 +22  1020.4  -1.1  755  281           
18 17.10.18 тихо ()   10 км    ясно 
+10.3 +5.8 74 +10  1020.6  -0.3  755  292    +23.9       
21 17.10.18 тихо ()   10 км    ясно 
+7.7 +4.8 82 +8  1020.9  0.1  755  295           
00 18.10.18 тихо ()   10 км    ясно 
+4.8 +3.6 92 +5  1021.1  0.1  755  298           
03 18.10.18 тихо ()   10 км    ясно 
+4 +3 93 +4  1020.8  -0.4  755  299           
06 18.10.18 тихо ()   10 км    3/0 верхняя 
[Ci fib]
+4.2 +2.7 90 +4  1020.9  0.1  755  299  +2.8         
09 18.10.18 тихо ()   10 км    4/0 верхняя 
[Ci fib]
+17.5 +4.8 43 +18  1019.9  0.3  754  285           
12 18.10.18 190 (Ю) 10 км    4/0 верхняя 
[Ci fib]
+22.4 +6.5 36 +22  1018  -1.6  753  279           
15 18.10.18 тихо ()   10 км    8/0 средняя, верхняя 
[Ac trans|Ci fib]
+21.2 +6.7 39 +21  1017.5  -0.6  753  280           
18 18.10.18 тихо ()   10 км    10/10 1500 м 
[Sc]
+13.8 +9 73 +14  1018.2  0.4  753  287    +22.7       
21 18.10.18 260 (З) 10 км    10/10 1500 м 
[Sc]
+13.3 +9.5 78 +15  1019  0.7  754  288           
00 19.10.18 тихо ()   10 км    9/4 1500 м верхняя 
[Sc|Ci fib]
+13.6 +9.3 75 +14  1018.7  -0.3  753  288           
03 19.10.18 тихо ()   10 км    9/9 1500 м 
[Sc]
+11.7 +8.9 83 +12  1018.5  -0.3  753  289           
06 19.10.18 тихо ()   10 км    9/9 1500 м 
[Sc]
+12.5 +9.3 81 +13  1018.7  0.3  753  289  +11.6         
09 19.10.18 тихо ()   10 км    8/0 средняя 
[Ac trans]
+16.8 +8.6 58 +17  1019.4  0.9  754  285           
12 19.10.18 тихо ()   10 км    8/4 1000 м средняя 
[Sc|Ac trans]
+20.4 +8.4 46 +20  1018.7  -0.5  754  281           
15 19.10.18 340 (С) 10 км    8/4 1000 м средняя 
[Sc|Ac trans]
+19 +7.1 46 +20  1018.5  -0.3  753  283           
18 19.10.18 350 (С) 10 км  в посл. час дождь  10/10 1200 м 
[Sc]
+16.9 +8.5 58 +17  1019.4  0.8  754  285    +21.8  0.0     
21 19.10.18 тихо ()   10 км    6/0 средняя 
[Ac trans]
+14 +8.4 69 +14  1020.2  0.7  755  288           
Время (UTC), дата Ветер
(°,м/с) 
Видим.   Явления Облачность Т
(°С)
Тd
(°С)
f(%) Тe
(°С)
Pmin
(гПа)
dP
(гПа)
Po
(мм)
O2
(г/м3)
Тmin Tmax R s Состояние
почвы

Для получения пояснительной информации подведите курсор к названию столбца.

ПОГОДА в Ужгороде - архив

Всё, что Вы хотите узнать о погоде в Ужгороде - удобно и подробно!

Выберите нужную дату (начиная с 1 января 2015* года) и нажмите кнопку "Найти".
Будут отображены архивные сводки погоды по пункту Ужгород, начиная с указанной даты.


Отображать данные в формате CSV (для использования в таблицах Excel)


Внимание! Наш архив погоды предназначен исключительно для личного некоммерческого использования в познавательных целях. Если Вам необходимы официальные справки о состоянии погоды (для производственных, юридических, коммерческих и т.п. целей), обращайтесь в органы Росгидромета.

*Примечание: данная дата относится к архиву по метеостанциям СССР (Россия, СНГ, Балтия).
Архив по метеостанциям Зарубежной Европы и Азии (кроме Китая) хранится 10 дней, по другим регионам земного шара (Китай, Африка, Америка, Австралия, Океания) - 1 день.

Ужгород - район местоположения метеостанции


Название, широта, долгота, высота метеостанции:
Ужгород 48.6°ш. 22.3°д. 124 м над ур. моря [Украина]

Дополнительная информация

В oтличие oт бoльшинства пoгoдных сайтoв мы публикуем пoдрoбную метеoинфoрмацию в детальнoм прoфессиoнальнoм фoрмате.

Характеристики температуры и влажнoсти вoздуха измеряются на высoте 2 м в тени вдали oт зданий и деревьев.
Скoрoсть ветра измеряется на высoте 10 м (на урoвне рoста челoвека скoрoсть ветра ниже в 1.5-2 раза). Если метеoстанция нахoдится в гoрoде или в лесу, тo скoрoсть ветра занижена на 2-4 м/с пo сравнению с oткрытым местoм. Скoрoсть ветра над акватoриями крупных рек и oзёр, а также на вершинах хoлмoв на 2-5 м/с выше, чем в oбычных услoвиях.
Атмoсфернoе давление в разных тoчках местнoсти мoжет значительнo oтличаться oт давления на метеoстанции, в зависимoсти oт услoвий рельефа (при пoдъёме на 10 м давление пoнижается примернo на 1 мм рт.ст.).